Time,TemperatureF,DewpointF,PressureIn,WindDirection,WindDirectionDegrees,WindSpeedMPH,WindSpeedGustMPH,Humidity,HourlyPrecipIn,Conditions,Clouds,dailyrainin,SoftwareType,DateUTC
2013-04-18 00:04:00,28.8,1.2,30.20,North,0,0.0,0.0,30,0.00,,---,0.00,VWS V14.01,2013-04-18 07:04:00,
2013-04-18 00:09:00,28.6,1.1,30.20,NE,55,0.0,0.0,30,0.00,,---,0.00,VWS V14.01,2013-04-18 07:09:00,
2013-04-18 00:14:00,28.8,1.2,30.20,North,10,0.0,0.0,30,0.00,,---,0.00,VWS V14.01,2013-04-18 07:14:00,
2013-04-18 00:20:00,29.7,2.0,30.20,ENE,61,6.3,6.3,30,0.00,,---,0.00,VWS V14.01,2013-04-18 07:20:00,
2013-04-18 00:25:00,31.6,3.8,30.20,ENE,60,5.4,8.3,30,0.00,,---,0.00,VWS V14.01,2013-04-18 07:25:00,
2013-04-18 00:31:00,32.7,4.7,30.20,ENE,70,5.4,8.3,30,0.00,,---,0.00,VWS V14.01,2013-04-18 07:31:00,
2013-04-18 00:36:00,33.1,5.0,30.20,ENE,59,2.2,3.6,30,0.00,,---,0.00,VWS V14.01,2013-04-18 07:36:00,
2013-04-18 00:41:00,33.3,5.2,30.20,SW,221,0.0,0.0,30,0.00,,---,0.00,VWS V14.01,2013-04-18 07:41:00,
2013-04-18 00:47:00,32.7,4.7,30.20,South,191,0.0,0.0,30,0.00,,---,0.00,VWS V14.01,2013-04-18 07:47:00,
2013-04-18 00:53:00,32.4,4.4,30.20,ESE,108,4.0,4.0,30,0.00,,---,0.00,VWS V14.01,2013-04-18 07:53:00,
2013-04-18 00:58:00,32.2,4.2,30.20,NE,38,0.0,0.0,30,0.00,,---,0.00,VWS V14.01,2013-04-18 07:58:00,
2013-04-18 01:04:00,32.0,4.1,30.20,ENE,59,0.0,0.0,30,0.00,,---,0.00,VWS V14.01,2013-04-18 08:04:00,
2013-04-18 01:10:00,32.0,4.1,30.20,NNW,340,2.7,2.7,30,0.00,,---,0.00,VWS V14.01,2013-04-18 08:10:00,
2013-04-18 01:15:00,31.5,3.6,30.20,NE,50,0.0,0.0,30,0.00,,---,0.00,VWS V14.01,2013-04-18 08:15:00,
2013-04-18 01:21:00,31.6,3.8,30.20,North,8,0.0,0.0,30,0.00,,---,0.00,VWS V14.01,2013-04-18 08:21:00,
2013-04-18 01:27:00,31.3,3.5,30.20,ESE,120,0.0,0.0,30,0.00,,---,0.00,VWS V14.01,2013-04-18 08:27:00,
2013-04-18 01:32:00,31.1,3.3,30.20,ESE,110,0.0,0.0,30,0.00,,---,0.00,VWS V14.01,2013-04-18 08:32:00,
2013-04-18 01:38:00,30.2,2.5,30.20,East,84,0.0,0.0,30,0.00,,---,0.00,VWS V14.01,2013-04-18 08:38:00,
2013-04-18 01:43:00,29.7,2.0,30.20,NNW,334,0.0,0.0,30,0.00,,---,0.00,VWS V14.01,2013-04-18 08:43:00,
2013-04-18 01:49:00,30.0,2.3,30.20,West,279,0.0,0.0,30,0.00,,---,0.00,VWS V14.01,2013-04-18 08:49:00,
2013-04-18 01:54:00,30.0,2.3,30.20,West,278,0.0,0.0,30,0.00,,---,0.00,VWS V14.01,2013-04-18 08:54:00,
2013-04-18 02:00:00,29.5,1.9,30.20,West,278,0.0,0.0,30,0.00,,---,0.00,VWS V14.01,2013-04-18 09:00:00,
2013-04-18 02:05:00,29.5,1.9,30.20,West,278,0.0,0.0,30,0.00,,---,0.00,VWS V14.01,2013-04-18 09:05:00,
2013-04-18 02:10:00,29.3,1.7,30.20,West,278,0.0,0.0,30,0.00,,---,0.00,VWS V14.01,2013-04-18 09:10:00,
2013-04-18 02:16:00,28.6,1.1,30.20,NW,310,0.0,0.0,30,0.00,,---,0.00,VWS V14.01,2013-04-18 09:16:00,
2013-04-18 02:21:00,28.0,1.7,30.20,NNW,335,0.0,0.0,32,0.00,,---,0.00,VWS V14.01,2013-04-18 09:21:00,
2013-04-18 02:27:00,28.6,1.1,30.20,NNE,28,3.1,4.5,30,0.00,,---,0.00,VWS V14.01,2013-04-18 09:27:00,
2013-04-18 02:33:00,29.7,2.0,30.20,NNW,343,2.2,4.0,30,0.00,,---,0.00,VWS V14.01,2013-04-18 09:33:00,
2013-04-18 02:38:00,29.5,1.9,30.20,SSE,153,3.6,3.6,30,0.00,,---,0.00,VWS V14.01,2013-04-18 09:38:00,
2013-04-18 02:44:00,29.5,1.9,30.17,East,89,4.5,5.4,30,0.00,,---,0.00,VWS V14.01,2013-04-18 09:44:00,
2013-04-18 02:51:00,31.3,3.5,30.17,ENE,75,5.4,6.3,30,0.00,,---,0.00,VWS V14.01,2013-04-18 09:51:00,
2013-04-18 02:56:00,34.0,5.8,30.17,ENE,70,7.6,8.1,30,0.00,,---,0.00,VWS V14.01,2013-04-18 09:56:00,
2013-04-18 03:03:00,35.6,6.1,30.17,East,99,4.0,5.8,28,0.00,,---,0.00,VWS V14.01,2013-04-18 10:03:00,
2013-04-18 03:09:00,36.0,6.4,30.17,East,83,5.4,8.1,28,0.00,,---,0.00,VWS V14.01,2013-04-18 10:09:00,
2013-04-18 03:14:00,35.8,6.3,30.17,ENE,78,5.8,6.3,28,0.00,,---,0.00,VWS V14.01,2013-04-18 10:14:00,
2013-04-18 03:20:00,36.0,6.4,30.17,ENE,67,5.4,8.3,28,0.00,,---,0.00,VWS V14.01,2013-04-18 10:20:00,
2013-04-18 03:25:00,36.7,7.1,30.20,East,82,5.8,8.1,28,0.00,,---,0.00,VWS V14.01,2013-04-18 10:25:00,
2013-04-18 03:31:00,37.6,7.8,30.20,ENE,64,6.3,7.6,28,0.00,,---,0.00,VWS V14.01,2013-04-18 10:31:00,
2013-04-18 03:36:00,37.4,7.7,30.20,East,86,5.8,7.6,28,0.00,,---,0.00,VWS V14.01,2013-04-18 10:36:00,
2013-04-18 03:41:00,38.5,10.9,30.17,East,93,8.1,8.1,32,0.00,,---,0.00,VWS V14.01,2013-04-18 10:41:00,
2013-04-18 03:47:00,38.8,11.2,30.17,ENE,74,8.3,8.7,32,0.00,,---,0.00,VWS V14.01,2013-04-18 10:47:00,
2013-04-18 03:53:00,39.4,11.6,30.20,ENE,71,5.8,8.3,32,0.00,,---,0.00,VWS V14.01,2013-04-18 10:53:00,
2013-04-18 03:59:00,39.6,11.8,30.20,East,84,5.8,8.1,32,0.00,,---,0.00,VWS V14.01,2013-04-18 10:59:00,
2013-04-18 04:04:00,39.7,11.9,30.20,East,85,7.6,7.6,32,0.00,,---,0.00,VWS V14.01,2013-04-18 11:04:00,
2013-04-18 04:10:00,40.3,12.4,30.20,East,97,8.3,8.3,32,0.00,,---,0.00,VWS V14.01,2013-04-18 11:10:00,
2013-04-18 04:15:00,40.6,12.7,30.20,NE,43,7.6,7.6,32,0.00,,---,0.00,VWS V14.01,2013-04-18 11:15:00,
2013-04-18 04:21:00,41.0,13.1,30.20,North,11,6.3,7.6,32,0.00,,---,0.00,VWS V14.01,2013-04-18 11:21:00,
2013-04-18 04:27:00,40.8,12.9,30.20,ENE,73,5.4,8.7,32,0.00,,---,0.00,VWS V14.01,2013-04-18 11:27:00,
2013-04-18 04:32:00,40.8,12.9,30.20,ENE,60,8.3,8.3,32,0.00,,---,0.00,VWS V14.01,2013-04-18 11:32:00,
2013-04-18 04:38:00,40.1,8.8,30.20,ENE,69,7.6,8.1,27,0.00,,---,0.00,VWS V14.01,2013-04-18 11:38:00,
2013-04-18 04:44:00,39.7,8.5,30.20,ENE,77,6.3,8.1,27,0.00,,---,0.00,VWS V14.01,2013-04-18 11:44:00,
2013-04-18 04:49:00,39.7,8.5,30.20,ENE,76,7.6,10.1,27,0.00,,---,0.00,VWS V14.01,2013-04-18 11:49:00,
2013-04-18 04:54:00,40.6,9.3,30.20,ENE,71,6.3,7.6,27,0.00,,---,0.00,VWS V14.01,2013-04-18 11:54:00,
2013-04-18 04:59:00,41.2,13.2,30.20,East,90,7.6,8.1,32,0.00,,---,0.00,VWS V14.01,2013-04-18 11:59:00,
2013-04-18 05:05:00,42.6,14.5,30.20,ESE,110,10.5,12.3,32,0.00,,---,0.00,VWS V14.01,2013-04-18 12:05:00,
2013-04-18 05:10:00,43.7,14.3,30.20,ENE,62,10.1,10.1,30,0.00,,---,0.00,VWS V14.01,2013-04-18 12:10:00,
2013-04-18 05:16:00,43.9,14.5,30.20,East,91,7.6,10.1,30,0.00,,---,0.00,VWS V14.01,2013-04-18 12:16:00,
2013-04-18 05:22:00,43.3,14.0,30.20,SE,127,8.3,10.1,30,0.00,,---,0.00,VWS V14.01,2013-04-18 12:22:00,
2013-04-18 05:28:00,43.3,14.0,30.20,ENE,66,8.7,13.2,30,0.00,,---,0.00,VWS V14.01,2013-04-18 12:28:00,
2013-04-18 05:34:00,43.5,14.2,30.20,ESE,122,6.3,8.3,30,0.00,,---,0.00,VWS V14.01,2013-04-18 12:34:00,
2013-04-18 05:40:00,43.0,13.7,30.20,East,82,6.3,8.1,30,0.00,,---,0.00,VWS V14.01,2013-04-18 12:40:00,
2013-04-18 05:45:00,42.1,14.0,30.20,East,93,5.8,6.3,32,0.00,,---,0.00,VWS V14.01,2013-04-18 12:45:00,
2013-04-18 05:51:00,41.7,13.7,30.20,East,80,6.3,8.7,32,0.00,,---,0.00,VWS V14.01,2013-04-18 12:51:00,
2013-04-18 05:56:00,41.5,13.5,30.20,East,98,8.3,8.3,32,0.00,,---,0.00,VWS V14.01,2013-04-18 12:56:00,
2013-04-18 06:02:00,41.5,13.5,30.20,ENE,75,7.6,11.0,32,0.00,,---,0.00,VWS V14.01,2013-04-18 13:02:00,
2013-04-18 06:08:00,42.3,14.2,30.20,East,83,8.7,10.5,32,0.00,,---,0.00,VWS V14.01,2013-04-18 13:08:00,
2013-04-18 06:14:00,42.1,14.0,30.20,East,92,8.1,8.3,32,0.00,,---,0.00,VWS V14.01,2013-04-18 13:14:00,
2013-04-18 06:19:00,43.7,14.3,30.20,East,79,11.9,11.9,30,0.00,,---,0.00,VWS V14.01,2013-04-18 13:19:00,
2013-04-18 06:25:00,43.5,14.2,30.23,ESE,105,8.3,9.2,30,0.00,,---,0.00,VWS V14.01,2013-04-18 13:25:00,
2013-04-18 06:30:00,43.9,14.5,30.23,East,96,7.6,8.3,30,0.00,,---,0.00,VWS V14.01,2013-04-18 13:30:00,
2013-04-18 06:36:00,43.9,14.5,30.23,East,97,8.7,9.6,30,0.00,,---,0.00,VWS V14.01,2013-04-18 13:36:00,
2013-04-18 06:41:00,44.2,14.8,30.23,East,79,14.1,14.1,30,0.00,,---,0.00,VWS V14.01,2013-04-18 13:41:00,
2013-04-18 06:46:00,44.8,15.3,30.23,East,100,8.3,13.2,30,0.00,,---,0.00,VWS V14.01,2013-04-18 13:46:00,
2013-04-18 06:52:00,45.5,15.9,30.23,ENE,73,10.5,15.0,30,0.00,,---,0.00,VWS V14.01,2013-04-18 13:52:00,
2013-04-18 06:57:00,46.8,15.8,30.23,ENE,57,12.8,15.4,28,0.00,,---,0.00,VWS V14.01,2013-04-18 13:57:00,
2013-04-18 07:04:00,47.3,16.3,30.23,ENE,73,17.4,17.4,28,0.00,,---,0.00,VWS V14.01,2013-04-18 14:04:00,
2013-04-18 07:09:00,47.8,16.7,30.23,East,101,10.1,13.2,28,0.00,,---,0.00,VWS V14.01,2013-04-18 14:09:00,
2013-04-18 07:15:00,48.6,17.4,30.23,ENE,65,10.5,17.9,28,0.00,,---,0.00,VWS V14.01,2013-04-18 14:15:00,
2013-04-18 07:20:00,49.3,18.0,30.23,ENE,65,13.2,15.4,28,0.00,,---,0.00,VWS V14.01,2013-04-18 14:20:00,
2013-04-18 07:25:00,49.8,18.5,30.23,ENE,60,11.4,11.4,28,0.00,,---,0.00,VWS V14.01,2013-04-18 14:25:00,
2013-04-18 07:31:00,50.5,19.1,30.23,ENE,59,7.6,13.2,28,0.00,,---,0.00,VWS V14.01,2013-04-18 14:31:00,
2013-04-18 07:37:00,51.3,19.7,30.23,East,95,8.1,8.3,28,0.00,,---,0.00,VWS V14.01,2013-04-18 14:37:00,
2013-04-18 07:43:00,52.2,19.2,30.23,East,86,6.3,8.7,27,0.00,,---,0.00,VWS V14.01,2013-04-18 14:43:00,
2013-04-18 07:48:00,52.7,19.7,30.23,ENE,72,11.4,13.2,27,0.00,,---,0.00,VWS V14.01,2013-04-18 14:48:00,
2013-04-18 07:54:00,53.4,20.3,30.23,ENE,71,11.9,11.9,27,0.00,,---,0.00,VWS V14.01,2013-04-18 14:54:00,
2013-04-18 07:59:00,53.8,20.6,30.23,NE,52,8.1,15.0,27,0.00,,---,0.00,VWS V14.01,2013-04-18 14:59:00,
2013-04-18 08:05:00,54.7,21.4,30.23,NE,44,11.0,12.8,27,0.00,,---,0.00,VWS V14.01,2013-04-18 15:05:00,
2013-04-18 08:10:00,55.4,20.6,30.23,NE,49,8.3,8.3,26,0.00,,---,0.00,VWS V14.01,2013-04-18 15:10:00,
2013-04-18 08:16:00,55.4,20.6,30.23,ENE,69,17.0,17.0,26,0.00,,---,0.00,VWS V14.01,2013-04-18 15:16:00,
2013-04-18 08:21:00,55.9,21.1,30.23,ENE,58,12.8,16.3,26,0.00,,---,0.00,VWS V14.01,2013-04-18 15:21:00,
2013-04-18 08:27:00,56.3,21.4,30.23,NE,35,18.3,18.3,26,0.00,,---,0.00,VWS V14.01,2013-04-18 15:27:00,
2013-04-18 08:32:00,57.0,22.0,30.23,ENE,59,12.8,13.2,26,0.00,,---,0.00,VWS V14.01,2013-04-18 15:32:00,
2013-04-18 08:38:00,57.2,22.2,30.23,ENE,59,8.1,10.5,26,0.00,,---,0.00,VWS V14.01,2013-04-18 15:38:00,
2013-04-18 08:44:00,57.2,22.2,30.26,ENE,71,10.5,12.8,26,0.00,,---,0.00,VWS V14.01,2013-04-18 15:44:00,
2013-04-18 08:49:00,57.7,22.6,30.26,ENE,63,12.8,17.4,26,0.00,,---,0.00,VWS V14.01,2013-04-18 15:49:00,
2013-04-18 08:55:00,58.1,23.0,30.23,ENE,67,8.1,12.8,26,0.00,,---,0.00,VWS V14.01,2013-04-18 15:55:00,
2013-04-18 09:00:00,58.8,23.6,30.23,ENE,72,7.6,11.4,26,0.00,,---,0.00,VWS V14.01,2013-04-18 16:00:00,
2013-04-18 09:06:00,59.2,23.9,30.23,ENE,62,12.3,12.3,26,0.00,,---,0.00,VWS V14.01,2013-04-18 16:06:00,
2013-04-18 09:11:00,59.5,24.2,30.23,NE,49,11.0,17.0,26,0.00,,---,0.00,VWS V14.01,2013-04-18 16:11:00,
2013-04-18 09:17:00,59.5,24.2,30.23,East,94,10.5,15.9,26,0.00,,---,0.00,VWS V14.01,2013-04-18 16:17:00,
2013-04-18 09:22:00,59.4,24.0,30.23,NE,56,15.0,15.0,26,0.00,,---,0.00,VWS V14.01,2013-04-18 16:22:00,
2013-04-18 09:28:00,60.1,24.6,30.23,ESE,121,8.3,12.8,26,0.00,,---,0.00,VWS V14.01,2013-04-18 16:28:00,
2013-04-18 09:34:00,60.1,24.6,30.23,NE,55,13.2,16.8,26,0.00,,---,0.00,VWS V14.01,2013-04-18 16:34:00,
2013-04-18 09:40:00,60.6,25.1,30.26,ENE,76,11.0,11.0,26,0.00,,---,0.00,VWS V14.01,2013-04-18 16:40:00,
2013-04-18 09:45:00,60.8,23.8,30.26,ENE,61,15.9,15.9,24,0.00,,---,0.00,VWS V14.01,2013-04-18 16:45:00,
2013-04-18 09:50:00,61.0,24.0,30.26,North,6,8.7,12.8,24,0.00,,---,0.00,VWS V14.01,2013-04-18 16:50:00,
2013-04-18 09:56:00,61.7,24.6,30.26,East,97,8.3,10.1,24,0.00,,---,0.00,VWS V14.01,2013-04-18 16:56:00,
2013-04-18 10:01:00,61.9,24.7,30.26,ENE,58,10.5,14.5,24,0.00,,---,0.00,VWS V14.01,2013-04-18 17:01:00,
2013-04-18 10:07:00,62.2,25.0,30.26,ESE,103,12.8,12.8,24,0.00,,---,0.00,VWS V14.01,2013-04-18 17:07:00,
2013-04-18 10:12:00,61.9,24.7,30.26,ENE,76,15.0,15.0,24,0.00,,---,0.00,VWS V14.01,2013-04-18 17:12:00,
2013-04-18 10:18:00,61.9,24.7,30.26,East,101,11.0,11.0,24,0.00,,---,0.00,VWS V14.01,2013-04-18 17:18:00,
2013-04-18 10:24:00,62.4,25.2,30.26,ESE,108,11.4,12.8,24,0.00,,---,0.00,VWS V14.01,2013-04-18 17:24:00,
2013-04-18 10:30:00,62.6,25.3,30.26,East,98,12.8,18.8,24,0.00,,---,0.00,VWS V14.01,2013-04-18 17:30:00,
2013-04-18 10:36:00,62.4,25.2,30.26,SE,130,11.4,15.4,24,0.00,,---,0.00,VWS V14.01,2013-04-18 17:36:00,
2013-04-18 10:41:00,63.3,25.9,30.26,East,87,11.0,14.1,24,0.00,,---,0.00,VWS V14.01,2013-04-18 17:41:00,
2013-04-18 10:47:00,62.4,25.2,30.26,NE,45,12.3,13.2,24,0.00,,---,0.00,VWS V14.01,2013-04-18 17:47:00,
2013-04-18 10:53:00,63.3,25.9,30.26,East,87,8.1,10.5,24,0.00,,---,0.00,VWS V14.01,2013-04-18 17:53:00,
2013-04-18 10:58:00,63.5,26.1,30.26,East,80,10.5,13.2,24,0.00,,---,0.00,VWS V14.01,2013-04-18 17:58:00,
2013-04-18 11:04:00,63.9,26.4,30.26,ESE,111,10.5,10.5,24,0.00,,---,0.00,VWS V14.01,2013-04-18 18:04:00,
2013-04-18 11:09:00,64.6,25.5,30.26,East,90,8.7,11.9,22,0.00,,---,0.00,VWS V14.01,2013-04-18 18:09:00,
2013-04-18 11:15:00,64.4,25.3,30.26,East,79,14.5,14.5,22,0.00,,---,0.00,VWS V14.01,2013-04-18 18:15:00,
2013-04-18 11:20:00,64.8,25.6,30.26,NE,42,8.1,10.5,22,0.00,,---,0.00,VWS V14.01,2013-04-18 18:20:00,
2013-04-18 11:26:00,65.1,25.9,30.26,SE,127,12.8,14.1,22,0.00,,---,0.00,VWS V14.01,2013-04-18 18:26:00,
2013-04-18 11:32:00,65.5,26.2,30.26,East,94,11.9,12.3,22,0.00,,---,0.00,VWS V14.01,2013-04-18 18:32:00,
2013-04-18 11:37:00,66.0,26.6,30.26,ESE,110,8.1,15.4,22,0.00,,---,0.00,VWS V14.01,2013-04-18 18:37:00,
2013-04-18 11:43:00,65.8,26.5,30.26,ESE,110,14.5,14.5,22,0.00,,---,0.00,VWS V14.01,2013-04-18 18:43:00,
2013-04-18 11:48:00,66.0,26.6,30.26,ESE,102,10.5,12.8,22,0.00,,---,0.00,VWS V14.01,2013-04-18 18:48:00,
2013-04-18 11:53:00,65.5,26.2,30.26,ENE,78,10.5,13.2,22,0.00,,---,0.00,VWS V14.01,2013-04-18 18:53:00,
2013-04-18 11:59:00,65.3,26.0,30.26,ESE,115,11.0,13.2,22,0.00,,---,0.00,VWS V14.01,2013-04-18 18:59:00,
2013-04-18 12:05:00,66.2,26.8,30.26,East,89,13.2,16.8,22,0.00,,---,0.00,VWS V14.01,2013-04-18 19:05:00,
2013-04-18 12:11:00,66.7,27.3,30.23,SE,131,11.9,14.5,22,0.00,,---,0.00,VWS V14.01,2013-04-18 19:11:00,
2013-04-18 12:16:00,66.6,27.1,30.23,NE,46,5.8,12.8,22,0.00,,---,0.00,VWS V14.01,2013-04-18 19:16:00,
2013-04-18 12:22:00,64.9,25.8,30.23,ENE,62,12.3,12.8,22,0.00,,---,0.00,VWS V14.01,2013-04-18 19:22:00,
2013-04-18 12:27:00,65.8,26.5,30.23,ESE,116,5.4,10.1,22,0.00,,---,0.00,VWS V14.01,2013-04-18 19:27:00,
2013-04-18 12:33:00,67.5,27.9,30.23,SE,129,5.4,5.4,22,0.00,,---,0.00,VWS V14.01,2013-04-18 19:33:00,
2013-04-18 12:39:00,67.3,27.7,30.23,NE,44,8.1,12.3,22,0.00,,---,0.00,VWS V14.01,2013-04-18 19:39:00,
2013-04-18 12:44:00,67.5,27.9,30.23,WSW,238,2.7,4.0,22,0.00,,---,0.00,VWS V14.01,2013-04-18 19:44:00,
2013-04-18 12:49:00,69.1,29.2,30.23,South,191,4.0,4.0,22,0.00,,---,0.00,VWS V14.01,2013-04-18 19:49:00,
2013-04-18 12:54:00,70.2,28.4,30.23,ESE,110,5.4,8.1,21,0.00,,---,0.00,VWS V14.01,2013-04-18 19:54:00,
2013-04-18 13:00:00,70.9,29.0,30.23,SSW,208,4.0,6.3,21,0.00,,---,0.00,VWS V14.01,2013-04-18 20:00:00,
2013-04-18 13:05:00,71.1,29.2,30.23,SE,127,5.4,17.0,21,0.00,,---,0.00,VWS V14.01,2013-04-18 20:05:00,
2013-04-18 13:11:00,70.7,28.9,30.23,SSE,154,10.1,12.3,21,0.00,,---,0.00,VWS V14.01,2013-04-18 20:11:00,
2013-04-18 13:16:00,70.5,28.7,30.23,North,10,5.8,5.8,21,0.00,,---,0.00,VWS V14.01,2013-04-18 20:16:00,
2013-04-18 13:22:00,69.4,29.5,30.23,East,91,10.1,11.9,22,0.00,,---,0.00,VWS V14.01,2013-04-18 20:22:00,
2013-04-18 13:27:00,70.2,28.4,30.23,SSW,203,2.2,8.3,21,0.00,,---,0.00,VWS V14.01,2013-04-18 20:27:00,
2013-04-18 13:33:00,70.9,29.0,30.23,North,1,5.8,5.8,21,0.00,,---,0.00,VWS V14.01,2013-04-18 20:33:00,
2013-04-18 13:38:00,70.7,28.9,30.23,ENE,57,3.6,7.2,21,0.00,,---,0.00,VWS V14.01,2013-04-18 20:38:00,
2013-04-18 13:44:00,70.2,28.4,30.23,ESE,112,6.3,8.1,21,0.00,,---,0.00,VWS V14.01,2013-04-18 20:44:00,
2013-04-18 13:49:00,70.7,28.9,30.23,NE,51,8.3,8.3,21,0.00,,---,0.00,VWS V14.01,2013-04-18 20:49:00,
2013-04-18 13:55:00,70.0,28.3,30.23,NE,44,0.0,4.5,21,0.00,,---,0.00,VWS V14.01,2013-04-18 20:55:00,
2013-04-18 14:00:00,70.5,28.7,30.23,ESE,114,7.6,11.0,21,0.00,,---,0.00,VWS V14.01,2013-04-18 21:00:00,
2013-04-18 14:06:00,71.8,29.8,30.23,SW,219,5.8,8.1,21,0.00,,---,0.00,VWS V14.01,2013-04-18 21:06:00,
2013-04-18 14:11:00,72.7,30.5,30.23,SSE,162,3.6,3.6,21,0.00,,---,0.00,VWS V14.01,2013-04-18 21:11:00,
2013-04-18 14:17:00,72.7,30.5,30.23,SSW,208,5.4,7.6,21,0.00,,---,0.00,VWS V14.01,2013-04-18 21:17:00,
2013-04-18 14:22:00,73.4,29.3,30.23,SE,133,10.5,10.5,20,0.00,,---,0.00,VWS V14.01,2013-04-18 21:22:00,
2013-04-18 14:27:00,73.8,29.6,30.23,SSE,156,8.3,8.3,20,0.00,,---,0.00,VWS V14.01,2013-04-18 21:27:00,
2013-04-18 14:33:00,73.8,29.6,30.23,SSE,161,3.6,3.6,20,0.00,,---,0.00,VWS V14.01,2013-04-18 21:33:00,
2013-04-18 14:39:00,73.9,29.8,30.23,ESE,104,5.4,7.6,20,0.00,,---,0.00,VWS V14.01,2013-04-18 21:39:00,
2013-04-18 14:45:00,72.1,30.1,30.20,ENE,74,3.6,6.3,21,0.00,,---,0.00,VWS V14.01,2013-04-18 21:45:00,
2013-04-18 14:50:00,72.0,29.9,30.20,SSE,149,2.7,4.0,21,0.00,,---,0.00,VWS V14.01,2013-04-18 21:50:00,
2013-04-18 14:56:00,72.7,30.5,30.20,NNE,21,4.9,6.3,21,0.00,,---,0.00,VWS V14.01,2013-04-18 21:56:00,
2013-04-18 15:01:00,72.7,30.5,30.20,NNE,31,0.0,0.0,21,0.00,,---,0.00,VWS V14.01,2013-04-18 22:01:00,
2013-04-18 15:07:00,73.2,31.0,30.20,WSW,244,0.0,0.0,21,0.00,,---,0.00,VWS V14.01,2013-04-18 22:07:00,
2013-04-18 15:12:00,71.8,29.8,30.20,WSW,246,5.8,10.1,21,0.00,,---,0.00,VWS V14.01,2013-04-18 22:12:00,
2013-04-18 15:18:00,72.3,30.2,30.20,WSW,245,5.4,5.8,21,0.00,,---,0.00,VWS V14.01,2013-04-18 22:18:00,
2013-04-18 15:23:00,70.5,28.7,30.20,NW,307,8.3,8.7,21,0.00,,---,0.00,VWS V14.01,2013-04-18 22:23:00,
2013-04-18 15:28:00,71.2,29.3,30.20,NW,304,5.4,8.1,21,0.00,,---,0.00,VWS V14.01,2013-04-18 22:28:00,
2013-04-18 15:34:00,70.7,28.9,30.20,West,261,9.2,9.2,21,0.00,,---,0.00,VWS V14.01,2013-04-18 22:34:00,
2013-04-18 15:39:00,70.9,29.0,30.20,NNW,329,3.6,4.9,21,0.00,,---,0.00,VWS V14.01,2013-04-18 22:39:00,
2013-04-18 15:45:00,70.5,28.7,30.20,NNW,332,8.1,8.7,21,0.00,,---,0.00,VWS V14.01,2013-04-18 22:45:00,
2013-04-18 15:51:00,70.2,28.4,30.20,NNW,340,8.1,8.7,21,0.00,,---,0.00,VWS V14.01,2013-04-18 22:51:00,
2013-04-18 15:57:00,70.3,28.6,30.20,SW,236,10.5,10.5,21,0.00,,---,0.00,VWS V14.01,2013-04-18 22:57:00,
2013-04-18 16:02:00,69.3,29.4,30.20,WNW,283,10.5,14.1,22,0.00,,---,0.00,VWS V14.01,2013-04-18 23:02:00,
2013-04-18 16:08:00,69.8,28.1,30.20,South,175,0.0,5.4,21,0.00,,---,0.00,VWS V14.01,2013-04-18 23:08:00,
2013-04-18 16:14:00,70.7,28.9,30.17,West,262,0.0,11.4,21,0.00,,---,0.00,VWS V14.01,2013-04-18 23:14:00,
2013-04-18 16:20:00,71.1,29.2,30.17,NNW,329,2.7,5.8,21,0.00,,---,0.00,VWS V14.01,2013-04-18 23:20:00,
2013-04-18 16:25:00,71.4,29.5,30.17,WSW,253,8.3,8.7,21,0.00,,---,0.00,VWS V14.01,2013-04-18 23:25:00,
2013-04-18 16:30:00,71.6,29.6,30.17,WNW,282,5.8,10.1,21,0.00,,---,0.00,VWS V14.01,2013-04-18 23:30:00,
2013-04-18 16:35:00,71.1,29.2,30.17,SSW,200,5.8,9.2,21,0.00,,---,0.00,VWS V14.01,2013-04-18 23:35:00,
2013-04-18 16:41:00,70.5,28.7,30.20,WNW,286,8.1,10.1,21,0.00,,---,0.00,VWS V14.01,2013-04-18 23:41:00,
2013-04-18 16:47:00,70.2,28.4,30.20,East,80,3.6,3.6,21,0.00,,---,0.00,VWS V14.01,2013-04-18 23:47:00,
2013-04-18 16:52:00,69.8,28.1,30.20,WNW,288,8.3,11.0,21,0.00,,---,0.00,VWS V14.01,2013-04-18 23:52:00,
2013-04-18 16:58:00,69.4,29.5,30.20,WSW,253,5.4,6.3,22,0.00,,---,0.00,VWS V14.01,2013-04-18 23:58:00,
2013-04-18 17:03:00,70.2,28.4,30.20,WSW,258,10.1,11.4,21,0.00,,---,0.00,VWS V14.01,2013-04-19 00:03:00,
2013-04-18 17:09:00,69.4,29.5,30.17,WSW,255,11.9,11.9,22,0.00,,---,0.00,VWS V14.01,2013-04-19 00:09:00,
2013-04-18 17:15:00,69.1,29.2,30.17,NW,308,8.7,8.7,22,0.00,,---,0.00,VWS V14.01,2013-04-19 00:15:00,
2013-04-18 17:20:00,68.5,28.8,30.17,West,281,8.1,8.1,22,0.00,,---,0.00,VWS V14.01,2013-04-19 00:20:00,
2013-04-18 17:26:00,68.4,28.6,30.20,West,270,10.5,12.8,22,0.00,,---,0.00,VWS V14.01,2013-04-19 00:26:00,
2013-04-18 17:32:00,68.5,28.8,30.20,West,264,10.5,10.5,22,0.00,,---,0.00,VWS V14.01,2013-04-19 00:32:00,
2013-04-18 17:38:00,67.5,27.9,30.20,NW,326,10.1,10.5,22,0.00,,---,0.00,VWS V14.01,2013-04-19 00:38:00,
2013-04-18 17:43:00,67.5,27.9,30.20,NW,306,6.3,8.3,22,0.00,,---,0.00,VWS V14.01,2013-04-19 00:43:00,
2013-04-18 17:49:00,67.5,27.9,30.20,NNW,335,5.4,6.3,22,0.00,,---,0.00,VWS V14.01,2013-04-19 00:49:00,
2013-04-18 17:54:00,67.1,27.6,30.20,NW,312,8.1,8.1,22,0.00,,---,0.00,VWS V14.01,2013-04-19 00:54:00,
2013-04-18 18:00:00,66.7,27.3,30.20,WNW,288,10.1,10.1,22,0.00,,---,0.00,VWS V14.01,2013-04-19 01:00:00,
2013-04-18 18:05:00,66.4,27.0,30.20,North,4,5.8,7.6,22,0.00,,---,0.00,VWS V14.01,2013-04-19 01:05:00,
2013-04-18 18:11:00,65.8,26.5,30.20,NNW,348,5.4,8.1,22,0.00,,---,0.00,VWS V14.01,2013-04-19 01:11:00,
2013-04-18 18:16:00,65.7,26.4,30.20,NNW,340,8.1,8.1,22,0.00,,---,0.00,VWS V14.01,2013-04-19 01:16:00,
2013-04-18 18:22:00,65.1,25.9,30.20,WNW,298,7.6,11.0,22,0.00,,---,0.00,VWS V14.01,2013-04-19 01:22:00,
2013-04-18 18:28:00,64.6,25.5,30.20,NW,310,8.7,10.5,22,0.00,,---,0.00,VWS V14.01,2013-04-19 01:28:00,
2013-04-18 18:34:00,64.2,26.7,30.20,NNW,348,5.8,8.3,24,0.00,,---,0.00,VWS V14.01,2013-04-19 01:34:00,
2013-04-18 18:39:00,63.9,26.4,30.20,NW,310,7.2,7.2,24,0.00,,---,0.00,VWS V14.01,2013-04-19 01:39:00,
2013-04-18 18:46:00,63.3,25.9,30.20,North,353,5.4,5.8,24,0.00,,---,0.00,VWS V14.01,2013-04-19 01:46:00,
2013-04-18 18:51:00,63.0,25.6,30.20,NNE,26,5.8,7.6,24,0.00,,---,0.00,VWS V14.01,2013-04-19 01:51:00,
2013-04-18 18:56:00,62.6,25.3,30.20,East,79,8.1,12.8,24,0.00,,---,0.00,VWS V14.01,2013-04-19 01:56:00,
2013-04-18 19:01:00,61.9,24.7,30.20,East,96,8.3,8.7,24,0.00,,---,0.00,VWS V14.01,2013-04-19 02:01:00,
2013-04-18 19:08:00,61.2,24.1,30.20,ENE,77,7.6,7.6,24,0.00,,---,0.00,VWS V14.01,2013-04-19 02:08:00,
2013-04-18 19:13:00,60.3,24.8,30.20,East,91,5.8,6.3,26,0.00,,---,0.00,VWS V14.01,2013-04-19 02:13:00,
2013-04-18 19:19:00,59.9,24.5,30.20,NE,51,2.7,4.0,26,0.00,,---,0.00,VWS V14.01,2013-04-19 02:19:00,
2013-04-18 19:24:00,59.2,23.9,30.20,North,4,0.0,2.7,26,0.00,,---,0.00,VWS V14.01,2013-04-19 02:24:00,
2013-04-18 19:29:00,58.6,23.4,30.20,NNE,28,2.7,3.6,26,0.00,,---,0.00,VWS V14.01,2013-04-19 02:29:00,
2013-04-18 19:34:00,58.1,23.0,30.20,NE,50,4.0,4.0,26,0.00,,---,0.00,VWS V14.01,2013-04-19 02:34:00,
2013-04-18 19:40:00,57.4,22.3,30.23,NNE,33,4.0,6.7,26,0.00,,---,0.00,VWS V14.01,2013-04-19 02:40:00,
2013-04-18 19:46:00,56.7,21.7,30.23,ENE,60,2.7,4.0,26,0.00,,---,0.00,VWS V14.01,2013-04-19 02:46:00,
2013-04-18 19:52:00,56.1,21.3,30.23,NNE,33,3.1,3.6,26,0.00,,---,0.00,VWS V14.01,2013-04-19 02:52:00,
2013-04-18 19:58:00,55.4,20.6,30.23,NE,45,6.3,6.7,26,0.00,,---,0.00,VWS V14.01,2013-04-19 02:58:00,
2013-04-18 20:03:00,55.0,21.7,30.23,NNE,15,4.9,5.4,27,0.00,,---,0.00,VWS V14.01,2013-04-19 03:03:00,
2013-04-18 20:09:00,54.5,21.2,30.23,ENE,77,6.3,6.3,27,0.00,,---,0.00,VWS V14.01,2013-04-19 03:09:00,
2013-04-18 20:14:00,54.3,21.1,30.23,NNE,17,6.3,6.3,27,0.00,,---,0.00,VWS V14.01,2013-04-19 03:14:00,
2013-04-18 20:20:00,54.0,20.8,30.23,NNE,23,3.1,5.4,27,0.00,,---,0.00,VWS V14.01,2013-04-19 03:20:00,
2013-04-18 20:25:00,53.4,20.3,30.23,NNE,14,4.0,4.9,27,0.00,,---,0.00,VWS V14.01,2013-04-19 03:25:00,
2013-04-18 20:30:00,53.1,20.0,30.23,NNE,19,3.6,4.0,27,0.00,,---,0.00,VWS V14.01,2013-04-19 03:30:00,
2013-04-18 20:36:00,52.2,19.2,30.23,ENE,57,5.4,5.4,27,0.00,,---,0.00,VWS V14.01,2013-04-19 03:36:00,
2013-04-18 20:41:00,51.6,20.0,30.23,NE,37,4.0,5.4,28,0.00,,---,0.00,VWS V14.01,2013-04-19 03:41:00,
2013-04-18 20:47:00,51.4,19.9,30.23,NE,36,4.0,4.0,28,0.00,,---,0.00,VWS V14.01,2013-04-19 03:47:00,
2013-04-18 20:52:00,51.3,19.7,30.23,NNE,14,3.6,4.0,28,0.00,,---,0.00,VWS V14.01,2013-04-19 03:52:00,
2013-04-18 20:57:00,50.7,19.2,30.23,NE,48,0.0,0.0,28,0.00,,---,0.00,VWS V14.01,2013-04-19 03:57:00,
2013-04-18 21:01:00,50.4,18.9,30.23,East,91,0.0,0.0,28,0.00,,---,0.00,VWS V14.01,2013-04-19 04:01:00,
2013-04-18 21:03:00,50.2,18.8,30.23,NE,44,3.6,4.0,28,0.00,,---,0.00,VWS V14.01,2013-04-19 04:03:00,
2013-04-18 21:05:00,49.8,18.5,30.23,NE,41,3.1,4.0,28,0.00,,---,0.00,VWS V14.01,2013-04-19 04:05:00,
2013-04-18 21:08:00,49.3,18.0,30.23,NNE,18,3.6,3.6,28,0.00,,---,0.00,VWS V14.01,2013-04-19 04:08:00,
2013-04-18 21:13:00,48.7,17.5,30.23,NE,50,6.3,6.3,28,0.00,,---,0.00,VWS V14.01,2013-04-19 04:13:00,
2013-04-18 21:14:00,48.7,17.5,30.23,North,7,4.9,6.3,28,0.00,,---,0.00,VWS V14.01,2013-04-19 04:14:00,
2013-04-18 21:19:00,48.6,17.4,30.23,North,8,4.9,7.6,28,0.00,,---,0.00,VWS V14.01,2013-04-19 04:19:00,
2013-04-18 21:25:00,48.2,17.0,30.23,North,357,3.1,3.6,28,0.00,,---,0.00,VWS V14.01,2013-04-19 04:25:00,
2013-04-18 21:30:00,47.8,16.7,30.23,NNE,14,4.9,4.9,28,0.00,,---,0.00,VWS V14.01,2013-04-19 04:30:00,
2013-04-18 21:36:00,47.3,16.3,30.23,NNE,17,5.4,5.4,28,0.00,,---,0.00,VWS V14.01,2013-04-19 04:36:00,
2013-04-18 21:41:00,47.1,16.1,30.23,NNE,12,4.0,5.4,28,0.00,,---,0.00,VWS V14.01,2013-04-19 04:41:00,
2013-04-18 21:47:00,46.4,15.5,30.23,NNE,18,2.7,3.6,28,0.00,,---,0.00,VWS V14.01,2013-04-19 04:47:00,
2013-04-18 21:52:00,46.2,16.5,30.23,NNE,32,4.0,5.4,30,0.00,,---,0.00,VWS V14.01,2013-04-19 04:52:00,
2013-04-18 21:58:00,45.7,16.0,30.23,NNE,30,5.4,6.3,30,0.00,,---,0.00,VWS V14.01,2013-04-19 04:58:00,
2013-04-18 22:04:00,45.5,15.9,30.23,NE,52,5.4,8.3,30,0.00,,---,0.00,VWS V14.01,2013-04-19 05:04:00,
2013-04-18 22:10:00,45.3,15.7,30.23,NNE,32,5.8,5.8,30,0.00,,---,0.00,VWS V14.01,2013-04-19 05:10:00,
2013-04-18 22:15:00,45.0,15.4,30.23,NE,35,5.4,6.3,30,0.00,,---,0.00,VWS V14.01,2013-04-19 05:15:00,
2013-04-18 22:21:00,44.8,15.3,30.23,NE,51,8.3,8.7,30,0.00,,---,0.00,VWS V14.01,2013-04-19 05:21:00,
2013-04-18 22:27:00,45.0,15.4,30.23,NE,46,8.3,8.7,30,0.00,,---,0.00,VWS V14.01,2013-04-19 05:27:00,
2013-04-18 22:32:00,45.1,15.6,30.23,NE,43,6.3,11.0,30,0.00,,---,0.00,VWS V14.01,2013-04-19 05:32:00,
2013-04-18 22:37:00,45.5,15.9,30.23,NE,45,8.3,9.6,30,0.00,,---,0.00,VWS V14.01,2013-04-19 05:37:00,
2013-04-18 22:42:00,45.9,16.2,30.23,NE,47,4.9,5.8,30,0.00,,---,0.00,VWS V14.01,2013-04-19 05:42:00,
2013-04-18 22:48:00,45.5,15.9,30.23,NE,44,5.4,6.3,30,0.00,,---,0.00,VWS V14.01,2013-04-19 05:48:00,
2013-04-18 22:53:00,44.6,15.1,30.23,ENE,61,5.8,5.8,30,0.00,,---,0.00,VWS V14.01,2013-04-19 05:53:00,
2013-04-18 22:59:00,43.7,14.3,30.23,ENE,74,4.0,5.8,30,0.00,,---,0.00,VWS V14.01,2013-04-19 05:59:00,
2013-04-18 23:04:00,43.0,11.3,30.23,NE,34,3.6,6.3,27,0.00,,---,0.00,VWS V14.01,2013-04-19 06:04:00,
2013-04-18 23:10:00,42.1,10.5,30.23,ENE,69,4.0,5.8,27,0.00,,---,0.00,VWS V14.01,2013-04-19 06:10:00,
2013-04-18 23:15:00,41.2,9.8,30.23,ENE,59,3.1,3.6,27,0.00,,---,0.00,VWS V14.01,2013-04-19 06:15:00,
2013-04-18 23:20:00,41.0,9.6,30.23,South,185,0.0,0.0,27,0.00,,---,0.00,VWS V14.01,2013-04-19 06:20:00,
2013-04-18 23:26:00,40.5,9.1,30.23,NE,51,8.7,8.7,27,0.00,,---,0.00,VWS V14.01,2013-04-19 06:26:00,
2013-04-18 23:32:00,39.9,8.7,30.23,NE,41,4.9,5.8,27,0.00,,---,0.00,VWS V14.01,2013-04-19 06:32:00,
2013-04-18 23:38:00,39.2,8.0,30.23,NNW,345,0.0,2.2,27,0.00,,---,0.00,VWS V14.01,2013-04-19 06:38:00,
2013-04-18 23:43:00,38.8,8.9,30.23,SE,125,3.1,4.0,28,0.00,,---,0.00,VWS V14.01,2013-04-19 06:43:00,
2013-04-18 23:49:00,39.0,9.1,30.23,NE,39,2.7,6.3,28,0.00,,---,0.00,VWS V14.01,2013-04-19 06:49:00,
2013-04-18 23:54:00,38.5,8.6,30.23,NNE,33,2.7,4.0,28,0.00,,---,0.00,VWS V14.01,2013-04-19 06:54:00,